FW7008 Weather Reports


Display with metric or nautical units.
time (UTC)temp
F
wind
direction
speed
MPH
gust
MPH
rain 1hr
in
rain 24hr
in
rain mn
in
humidity
%
barometer
mb
20260510130302 60 54 0.0 0.0 0.00 0.00 0.00 94 1013.5
20260510125758 60 66 0.0 0.0 0.00 0.00 0.00 94 1013.5
20260510125254 60 61 0.0 0.0 0.00 0.00 0.00 95 1013.5
20260510124751 60 18 0.0 0.0 0.00 0.00 0.00 95 1013.5
20260510124248 60 32 0.0 0.0 0.00 0.00 0.00 95 1013.5
20260510123743 60 47 0.0 0.0 0.00 0.00 0.00 95 1013.5
20260510123240 60 57 0.0 0.0 0.00 0.00 0.00 95 1013.5
20260510122736 60 57 0.0 0.0 0.00 0.00 0.00 96 1013.5
20260510122232 60 57 0.0 0.0 0.00 0.00 0.00 96 1013.5
20260510121729 60 57 0.0 0.0 0.00 0.00 0.00 96 1013.5
20260510121226 60 57 0.0 0.0 0.00 0.00 0.00 96 1013.5
20260510120724 60 66 0.0 0.0 0.00 0.00 0.00 96 1013.5
20260510120220 60 69 0.0 0.0 0.00 0.00 0.00 96 1013.2
20260510115715 60 121 0.0 0.0 0.00 0.00 0.00 96 1013.5
20260510115214 60 112 0.0 0.0 0.00 0.00 0.00 96 1013.5
20260510114709 60 113 0.0 0.0 0.00 0.00 0.00 96 1013.5
20260510114206 60 83 0.0 0.0 0.00 0.00 0.00 96 1013.2
20260510113701 60 105 0.0 0.0 0.00 0.00 0.00 97 1013.5
20260510113158 60 68 0.0 0.0 0.00 0.00 0.00 97 1013.5
20260510112655 60 75 0.0 0.0 0.00 0.00 0.00 97 1013.9
20260510112152 60 79 0.0 0.0 0.00 0.00 0.00 97 1013.5
20260510111648 60 68 0.0 0.0 0.00 0.00 0.00 97 1013.5
20260510111144 60 69 0.0 0.0 0.00 0.00 0.00 97 1013.5
20260510110639 59 80 0.0 0.0 0.00 0.00 0.00 97 1013.2
20260510110137 59 66 0.0 0.0 0.00 0.00 0.00 98 1013.5
20260510105632 59 64 0.0 0.0 0.00 0.00 0.00 98 1013.5
20260510105126 59 77 0.0 0.0 0.00 0.00 0.00 99 1013.5
20260510104624 59 84 0.0 0.0 0.00 0.00 0.00 99 1013.5
20260510104121 59 73 0.0 0.0 0.00 0.00 0.00 99 1013.5
20260510103617 60 100 0.0 0.0 0.00 0.00 0.00 99 1013.5
20260510103113 60 88 0.0 0.0 0.00 0.00 0.00 98 1013.5
20260510102609 60 80 0.0 0.0 0.00 0.00 0.00 98 1013.5
20260510102105 60 66 0.0 0.0 0.00 0.00 0.00 98 1013.5
20260510101603 60 81 0.0 0.0 0.00 0.00 0.00 98 1013.5
20260510101101 60 77 0.0 0.0 0.00 0.00 0.00 98 1013.5
20260510100556 60 61 0.0 0.0 0.00 0.00 0.00 98 1013.5
20260510100054 60 83 0.0 0.0 0.00 0.00 0.00 98 1013.5
20260510095550 60 86 0.0 0.0 0.00 0.00 0.00 97 1013.5
20260510095049 60 84 0.0 0.0 0.00 0.00 0.00 97 1013.9
20260510094544 60 95 0.0 0.0 0.00 0.00 0.00 97 1013.5
20260510094040 61 86 0.0 0.0 0.00 0.00 0.00 97 1013.5
20260510093536 61 144 0.0 0.0 0.00 0.00 0.00 97 1013.9
20260510093033 61 78 0.0 0.0 0.00 0.00 0.00 97 1013.2
20260510092530 61 95 0.0 0.0 0.00 0.00 0.00 97 1013.5
20260510092030 61 78 0.0 0.0 0.00 0.00 0.00 96 1013.5
20260510091527 61 84 0.0 0.0 0.00 0.00 0.00 96 1013.2
20260510091022 61 153 0.0 0.0 0.00 0.00 0.00 96 1013.5
20260510090519 61 81 0.0 0.0 0.00 0.00 0.00 96 1013.5
20260510090015 61 95 0.0 0.0 0.00 0.00 0.00 96 1013.2
20260510085510 61 58 0.0 0.0 0.00 0.00 0.00 96 1013.5
20260510085006 61 77 0.0 0.0 0.00 0.00 0.00 96 1013.5
20260510084503 61 65 0.0 0.0 0.00 0.00 0.00 96 1013.5
20260510084000 61 64 0.0 0.0 0.00 0.00 0.00 96 1013.9
20260510083456 61 32 0.0 0.0 0.00 0.00 0.00 96 1013.5
20260510082951 61 2 0.0 0.0 0.00 0.00 0.00 96 1013.5
20260510082450 61 82 0.0 0.0 0.00 0.00 0.00 96 1013.5
20260510081949 61 29 0.0 0.0 0.00 0.00 0.00 97 1013.9
20260510081445 61 30 0.0 0.0 0.00 0.00 0.00 97 1013.9
20260510080941 61 14 0.0 0.0 0.00 0.00 0.00 97 1013.5
20260510080439 61 14 0.0 0.0 0.00 0.00 0.00 97 1013.9
20260510075937 61 25 0.0 0.0 0.00 0.00 0.00 97 1013.9
20260510075435 61 27 0.0 0.0 0.00 0.00 0.00 97 1013.9
20260510074931 61 59 0.0 0.0 0.00 0.00 0.00 97 1013.9
20260510074428 61 64 0.0 0.0 0.00 0.00 0.00 97 1013.9
20260510073925 61 54 0.0 0.0 0.00 0.00 0.00 98 1013.9
20260510073420 61 49 0.0 0.0 0.00 0.00 0.00 97 1013.9
20260510072917 61 49 0.0 0.0 0.00 0.00 0.00 98 1013.9
20260510072414 61 56 0.0 0.0 0.00 0.00 0.00 98 1013.9
20260510071909 61 80 0.0 0.0 0.00 0.00 0.00 98 1014.2
20260510071406 61 91 0.0 0.0 0.00 0.00 0.00 98 1014.2
20260510070905 60 100 0.0 0.0 0.00 0.00 0.00 98 1013.9
20260510070401 60 120 0.0 0.0 0.00 0.00 0.00 98 1013.9
20260510065856 60 47 0.0 0.0 0.00 0.00 0.00 98 1013.9
20260510065353 60 89 0.0 0.0 0.00 0.00 0.00 99 1014.2
20260510064850 60 134 0.0 0.0 0.00 0.00 0.00 99 1014.2
20260510064348 60 95 0.0 0.0 0.00 0.00 0.00 99 1014.2
20260510063844 60 146 0.0 0.0 0.00 0.00 0.00 99 1014.2
20260510063340 60 59 0.0 0.0 0.00 0.00 0.00 99 1013.9
20260510062837 60 59 0.0 0.0 0.00 0.00 0.00 99 1013.9
20260510062332 60 300 0.0 0.0 0.00 0.00 0.00 99 1013.9
20260510061828 60 323 0.0 0.0 0.00 0.00 0.00 99 1013.9
20260510061325 60 305 0.0 0.0 0.00 0.00 0.00 99 1014.2
20260510060821 60 300 0.0 0.0 0.00 0.00 0.00 99 1013.9
20260510060318 60 250 0.0 0.0 0.00 0.00 0.00 99 1014.2
20260510055815 59 287 0.0 0.0 0.00 0.00 0.00 99 1013.9
20260510055314 59 269 0.0 0.0 0.00 0.00 0.00 99 1013.9
20260510054813 59 250 0.0 0.0 0.00 0.00 0.00 99 1013.9
20260510054309 59 274 0.0 0.0 0.00 0.00 0.00 99 1014.2
20260510053804 59 246 0.0 0.0 0.00 0.00 0.00 99 1014.2
20260510053300 59 268 0.0 0.0 0.00 0.00 0.00 99 1014.2
20260510052756 59 277 0.0 0.0 0.00 0.00 0.00 99 1014.2
20260510052252 59 276 0.0 0.0 0.00 0.00 0.00 99 1013.9
20260510051748 59 248 0.0 0.0 0.00 0.00 0.00 99 1014.2
20260510051245 59 197 0.0 0.0 0.00 0.00 0.00 99 1013.9
20260510050742 59 284 0.0 0.0 0.00 0.00 0.00 99 1013.9
20260510050239 59 266 0.0 0.0 0.00 0.00 0.00 99 1013.9
20260510045736 59 257 0.0 0.0 0.00 0.00 0.00 99 1014.2
20260510045232 59 236 0.0 0.0 0.00 0.00 0.00 99 1014.2
20260510044728 59 240 2.0 3.0 0.00 0.00 0.00 99 1014.2
20260510044227 59 264 0.0 0.0 0.00 0.00 0.00 99 1013.9
20260510043721 59 235 0.0 0.0 0.00 0.00 0.00 99 1013.9
20260510043219 59 218 0.0 0.0 0.00 0.00 0.00 99 1013.9
20260510042716 60 237 0.0 0.0 0.00 0.00 0.00 99 1014.2
20260510042212 59 238 0.0 0.0 0.00 0.00 0.00 99 1013.9
20260510041709 59 252 0.0 0.0 0.00 0.00 0.00 99 1013.9
20260510041206 60 218 0.0 0.0 0.00 0.00 0.00 99 1013.9
20260510040703 60 229 0.0 0.0 0.00 0.00 0.00 99 1013.9
20260510040200 60 244 0.0 0.0 0.00 0.00 0.00 99 1013.5
20260510035655 60 277 0.0 0.0 0.00 0.00 0.00 99 1013.9
20260510035151 60 238 0.0 0.0 0.00 0.00 0.00 99 1013.5
20260510034647 60 284 4.0 7.0 0.00 0.00 0.00 98 1013.5
20260510034145 60 244 0.0 0.0 0.00 0.00 0.00 98 1013.5
20260510033640 60 263 6.0 8.0 0.00 0.00 0.00 98 1013.2
20260510033133 60 266 0.0 0.0 0.00 0.00 0.00 98 1013.2
20260510032629 60 269 6.0 8.0 0.00 0.00 0.00 98 1013.2
20260510032125 60 248 4.0 6.0 0.00 0.00 0.00 98 1012.9
20260510031620 60 244 0.0 0.0 0.00 0.00 0.00 98 1013.2
20260510031116 60 246 7.0 9.0 0.00 0.00 0.00 98 1012.9
20260510030611 60 212 4.0 6.0 0.00 0.00 0.00 98 1013.2
20260510030109 60 268 0.0 0.0 0.00 0.00 0.00 97 1012.9
20260510025606 60 221 2.0 6.0 0.00 0.00 0.00 97 1012.9
20260510025104 60 178 1.0 6.0 0.00 0.00 0.00 98 1012.9
20260510024600 60 268 0.0 0.0 0.00 0.00 0.00 97 1012.9
20260510024056 60 240 0.0 2.0 0.00 0.00 0.00 97 1012.9
20260510023553 60 239 0.0 0.0 0.00 0.00 0.00 97 1012.5
20260510023051 61 241 5.0 6.0 0.00 0.00 0.00 96 1012.9
20260510022550 61 255 0.0 3.0 0.00 0.00 0.00 96 1012.9
20260510022044 61 223 5.0 9.0 0.00 0.00 0.00 96 1012.9
20260510021541 61 255 0.0 0.0 0.00 0.00 0.00 96 1012.5
20260510021038 61 239 11.0 11.0 0.00 0.00 0.00 96 1012.5
20260510020532 61 270 6.0 7.0 0.00 0.00 0.00 96 1012.9
20260510020028 61 228 0.0 0.0 0.00 0.00 0.00 95 1012.5
20260510015523 61 190 9.0 10.0 0.00 0.00 0.00 95 1012.5
20260510015020 62 230 11.0 15.0 0.00 0.00 0.00 94 1012.5
20260510014516 62 216 7.0 9.0 0.00 0.00 0.00 93 1012.5
20260510014014 62 268 7.0 8.0 0.00 0.00 0.00 92 1012.5
20260510013508 62 236 7.0 8.0 0.00 0.00 0.00 92 1012.2
20260510013005 62 267 6.0 8.0 0.00 0.00 0.00 92 1012.5
20260510012459 63 252 3.0 6.0 0.00 0.00 0.00 92 1012.5
20260510011955 63 200 5.0 9.0 0.00 0.00 0.00 91 1012.2
20260510011449 64 231 5.0 7.0 0.00 0.00 0.00 91 1012.2
20260510010946 64 225 6.0 8.0 0.00 0.00 0.00 90 1012.5
20260510010443 64 248 9.0 10.0 0.00 0.00 0.00 89 1012.2
20260510005940 64 241 6.0 8.0 0.00 0.00 0.00 90 1012.2
20260510005436 65 234 10.0 13.0 0.00 0.00 0.00 88 1012.2
20260510004933 64 248 2.0 8.0 0.00 0.00 0.00 89 1012.2
20260510004430 64 239 12.0 15.0 0.00 0.00 0.00 89 1012.2
20260510003929 65 215 10.0 13.0 0.00 0.00 0.00 88 1012.2
20260510003425 65 235 8.0 10.0 0.00 0.00 0.00 87 1012.2
20260510002924 65 250 10.0 10.0 0.00 0.00 0.00 88 1012.2
20260510002422 66 246 7.0 8.0 0.00 0.00 0.00 87 1012.5
20260510001918 65 253 7.0 10.0 0.00 0.00 0.00 88 1012.2
20260510001416 65 246 8.0 10.0 0.00 0.00 0.00 88 1012.2
20260510000913 66 235 7.0 8.0 0.00 0.00 0.00 87 1012.5
20260510000411 66 253 12.0 14.0 0.00 0.00 0.00 86 1012.5
20260509235905 66 244 5.0 8.0 0.00 0.00 0.00 85 1012.5
20260509235402 67 269 9.0 14.0 0.00 0.00 0.00 83 1012.5
20260509234858 67 226 9.0 13.0 0.00 0.00 0.00 83 1012.2
20260509234356 66 251 7.0 9.0 0.00 0.00 0.00 85 1012.2
20260509233854 68 238 9.0 11.0 0.00 0.00 0.00 83 1012.5
20260509233351 66 253 8.0 9.0 0.00 0.00 0.00 86 1012.2
20260509232846 68 257 9.0 14.0 0.00 0.00 0.00 82 1012.5
20260509232345 67 233 8.0 10.0 0.00 0.00 0.00 83 1012.5
20260509231840 67 236 7.0 8.0 0.00 0.00 0.00 83 1012.5
20260509231337 67 261 8.0 13.0 0.00 0.00 0.00 83 1012.5
20260509230835 68 147 4.0 5.0 0.00 0.00 0.00 82 1012.5
20260509230332 68 265 4.0 6.0 0.00 0.00 0.00 82 1012.2
20260509225827 68 232 7.0 13.0 0.00 0.00 0.00 83 1012.5
20260509225324 68 243 11.0 11.0 0.00 0.00 0.00 81 1012.5
20260509224820 68 232 9.0 10.0 0.00 0.00 0.00 82 1012.9
20260509224316 68 232 10.0 14.0 0.00 0.00 0.00 81 1012.5
20260509223813 68 245 7.0 8.0 0.00 0.00 0.00 81 1012.5
20260509223310 68 199 5.0 7.0 0.00 0.00 0.00 82 1012.9
20260509222806 68 249 10.0 14.0 0.00 0.00 0.00 81 1012.5
20260509222306 68 265 9.0 13.0 0.00 0.00 0.00 82 1012.9
20260509221753 68 263 9.0 11.0 0.00 0.00 0.00 82 1012.9
20260509221249 68 212 7.0 8.0 0.00 0.00 0.00 81 1012.9
20260509220745 68 241 8.0 9.0 0.00 0.00 0.00 83 1013.2
20260509220242 67 259 8.0 9.0 0.00 0.00 0.00 84 1013.2
20260509215737 68 277 10.0 14.0 0.00 0.00 0.00 84 1013.5
20260509215234 69 243 8.0 10.0 0.00 0.00 0.00 81 1013.2
20260509214731 69 226 5.0 6.0 0.00 0.00 0.00 82 1013.2
20260509214228 68 250 8.0 10.0 0.00 0.00 0.00 82 1013.2
20260509213725 69 216 6.0 10.0 0.00 0.00 0.00 82 1013.2
20260509213220 70 223 8.0 10.0 0.00 0.00 0.00 81 1013.5
20260509212718 69 252 9.0 11.0 0.00 0.00 0.00 81 1013.2
20260509212215 70 267 4.0 6.0 0.00 0.00 0.00 81 1013.5
20260509211710 70 244 9.0 10.0 0.00 0.00 0.00 78 1013.5
20260509211202 69 242 7.0 8.0 0.00 0.00 0.00 80 1013.5
20260509210658 70 255 6.0 7.0 0.00 0.00 0.00 82 1013.5
20260509210156 71 220 3.0 3.0 0.00 0.00 0.00 78 1013.9
20260509205650 71 233 6.0 10.0 0.00 0.00 0.00 78 1013.5
20260509205150 69 222 6.0 10.0 0.00 0.00 0.00 80 1013.5
20260509204646 71 281 8.0 10.0 0.00 0.00 0.00 78 1013.9
20260509204142 72 263 5.0 6.0 0.00 0.00 0.00 77 1013.9
20260509203639 71 241 4.0 6.0 0.00 0.00 0.00 79 1013.5
20260509203137 71 251 9.0 10.0 0.00 0.00 0.00 76 1013.9
20260509202637 71 240 8.0 9.0 0.00 0.00 0.00 77 1014.2
20260509202133 72 264 2.0 5.0 0.00 0.00 0.00 75 1013.9
20260509201628 72 264 2.0 5.0 0.00 0.00 0.00 75 1013.9
20260509201125 71 230 5.0 7.0 0.00 0.00 0.00 77 1013.5
20260509200621 70 250 6.0 7.0 0.00 0.00 0.00 80 1013.9
20260509200117 70 273 7.0 9.0 0.00 0.00 0.00 78 1013.9
20260509195613 71 227 6.0 8.0 0.00 0.00 0.00 77 1013.9
20260509195107 70 227 4.0 7.0 0.00 0.00 0.00 78 1014.2
20260509194606 70 281 10.0 11.0 0.00 0.00 0.00 78 1013.9
20260509194105 70 252 7.0 8.0 0.00 0.00 0.00 80 1013.9
20260509193601 69 265 9.0 10.0 0.00 0.00 0.00 81 1014.2
20260509193057 70 267 9.0 9.0 0.00 0.00 0.00 79 1014.2
20260509192553 69 224 4.0 6.0 0.00 0.00 0.00 80 1014.2
20260509192049 69 246 6.0 8.0 0.00 0.00 0.00 82 1014.2
20260509191549 70 255 7.0 8.0 0.00 0.00 0.00 81 1014.2
20260509191045 70 255 7.0 8.0 0.00 0.00 0.00 81 1014.2
20260509190542 70 263 6.0 7.0 0.00 0.00 0.00 79 1014.6
20260509190040 70 248 6.0 7.0 0.00 0.00 0.00 78 1014.6
20260509185537 70 248 6.0 7.0 0.00 0.00 0.00 79 1014.6
20260509185033 69 290 7.0 8.0 0.00 0.00 0.00 81 1014.6
20260509184532 70 267 1.0 3.0 0.00 0.00 0.00 79 1014.6
20260509184027 70 206 0.0 0.0 0.00 0.00 0.00 79 1014.6
20260509183523 69 261 2.0 3.0 0.00 0.00 0.00 81 1014.6
20260509183019 69 206 0.0 0.0 0.00 0.00 0.00 81 1014.6
20260509182515 68 275 6.0 7.0 0.00 0.00 0.00 82 1014.6
20260509182013 68 264 0.0 0.0 0.00 0.00 0.00 82 1014.6
20260509181511 68 308 0.0 0.0 0.00 0.00 0.00 83 1014.6
20260509181008 67 284 1.0 2.0 0.00 0.00 0.00 84 1014.9
20260509180503 67 178 1.0 5.0 0.00 0.00 0.00 83 1014.6
20260509180001 67 246 0.0 0.0 0.00 0.00 0.00 84 1014.9
20260509175456 68 264 0.0 0.0 0.00 0.00 0.00 83 1014.6
20260509174953 67 286 0.0 0.0 0.00 0.00 0.00 83 1014.9
20260509174449 68 286 0.0 0.0 0.00 0.00 0.00 82 1014.9
20260509173945 68 103 0.0 0.0 0.00 0.00 0.00 81 1014.9
20260509173445 68 16 0.0 0.0 0.00 0.00 0.00 81 1014.9
20260509172942 68 109 0.0 0.0 0.00 0.00 0.00 83 1014.9
20260509172439 67 129 0.0 0.0 0.00 0.00 0.00 83 1014.9
20260509171934 68 58 0.0 0.0 0.00 0.00 0.00 83 1014.6
20260509171430 68 53 0.0 0.0 0.00 0.00 0.00 82 1014.6
20260509170927 66 65 0.0 0.0 0.00 0.00 0.00 84 1014.6
20260509170423 66 110 0.0 0.0 0.00 0.00 0.00 86 1014.6
20260509165919 65 132 0.0 0.0 0.00 0.00 0.00 86 1014.6
20260509165413 66 110 0.0 0.0 0.00 0.00 0.00 85 1014.6
20260509164909 66 89 0.0 0.0 0.00 0.00 0.00 85 1014.2
20260509164405 66 80 0.0 0.0 0.00 0.00 0.00 85 1014.6
20260509163901 66 24 0.0 0.0 0.00 0.00 0.00 86 1014.9
20260509163358 65 68 0.0 0.0 0.00 0.00 0.00 87 1014.6
20260509162857 65 77 1.0 1.0 0.00 0.00 0.00 87 1014.6
20260509162355 65 74 0.0 0.0 0.00 0.00 0.00 87 1014.6
20260509161852 65 114 0.0 0.0 0.00 0.00 0.00 87 1014.9
20260509161348 64 50 0.0 0.0 0.00 0.00 0.00 88 1014.6
20260509160844 64 56 0.0 0.0 0.00 0.00 0.00 88 1014.9
20260509160340 64 23 0.0 0.0 0.00 0.00 0.00 90 1014.6
20260509155835 64 8 0.0 0.0 0.00 0.00 0.00 90 1014.6
20260509155332 64 45 0.0 0.0 0.00 0.00 0.00 90 1014.9
20260509154828 63 59 0.0 0.0 0.00 0.00 0.00 90 1014.9
20260509154325 63 72 0.0 0.0 0.00 0.00 0.00 90 1014.6
20260509153822 63 66 0.0 2.0 0.00 0.00 0.00 91 1014.6
20260509153318 63 10 0.0 0.0 0.00 0.00 0.00 91 1014.6
20260509152815 63 15 0.0 0.0 0.00 0.00 0.00 91 1014.6
20260509152311 63 39 0.0 0.0 0.00 0.00 0.00 91 1014.9
20260509151809 63 70 0.0 0.0 0.00 0.00 0.00 91 1014.9
20260509151305 63 48 0.0 0.0 0.00 0.00 0.00 91 1014.6
20260509150804 62 101 0.0 0.0 0.00 0.00 0.00 92 1014.9
20260509150301 62 72 0.0 0.0 0.00 0.00 0.00 92 1014.9
20260509145758 62 82 0.0 0.0 0.00 0.00 0.00 93 1014.9
20260509145257 62 87 0.0 0.0 0.00 0.00 0.00 93 1014.9
20260509144754 62 72 0.0 0.0 0.00 0.00 0.00 93 1014.9
20260509144251 62 70 0.0 0.0 0.00 0.00 0.00 93 1014.6
20260509143748 61 58 0.0 0.0 0.00 0.00 0.00 94 1014.9
20260509143246 61 72 0.0 0.0 0.00 0.00 0.00 94 1014.6
20260509142741 61 58 0.0 0.0 0.00 0.00 0.00 94 1014.6
20260509142238 61 58 0.0 0.0 0.00 0.00 0.00 95 1014.6
20260509141733 61 59 0.0 0.0 0.00 0.00 0.00 95 1014.6
20260509141231 61 51 0.0 0.0 0.00 0.00 0.00 95 1014.6
20260509140728 61 53 0.0 0.0 0.00 0.00 0.00 96 1014.6
20260509140225 61 57 0.0 0.0 0.00 0.00 0.00 96 1014.6
20260509135722 60 59 0.0 0.0 0.00 0.00 0.00 96 1014.6
20260509135220 60 58 0.0 0.0 0.00 0.00 0.00 96 1014.6
20260509134717 60 58 0.0 0.0 0.00 0.00 0.00 96 1014.2
20260509134214 60 58 0.0 0.0 0.00 0.00 0.00 97 1014.2
20260509133711 60 53 0.0 0.0 0.00 0.00 0.00 97 1014.6
20260509133208 60 56 0.0 0.0 0.00 0.00 0.00 97 1014.6
20260509132707 60 55 0.0 0.0 0.00 0.00 0.00 97 1014.2
20260509132205 60 54 0.0 0.0 0.00 0.00 0.00 97 1014.2
20260509131700 60 54 0.0 0.0 0.00 0.00 0.00 97 1014.2
20260509131152 60 61 0.0 0.0 0.00 0.00 0.00 97 1014.6